Starlink 33941

operational
NORAD ID: 63765 Int'l Des: 2025-089 Owner: SPXS Country: US Constellation: starlink
LEOCIRCULAR

关于 Starlink 33941

正在加载描述...

实时位置

正在加载3D地球...

即将过境

高度历史

Altitude vs Time

uPlot chart will show altitude changes over time

两行轨道根数

1 63765U 25089Q 25260.14015377 .00025746 00000-0 94190-3 0 9994
2 63765 42.9959 305.5024 0000517 302.7975 57.2827 15.27578351 22405
Epoch: Sep 17, 2025 • Age: 25 hours

当前状态

高度 495.9 km
速度 7.62 km/s
星下点 -43.12°S, 153.85°E
发射日期 Apr 29, 2025
运行时间 0.3 years
类型 internet

技术详情

分类 Payload
质量 575.00 kg
干质量 530.00 kg
总质量 575.00 kg
长度 0.30 m
直径 4.10 m
跨度 29.00 m
形状 Box + pan
制造商 SPXS
平台类型 Starlink V2MO
阶段状态 In Orbit
所有者/国家 SPXS/US

大型星座

Loading constellations...